When you browse on this site, cookies collect data to enhance your experience and personalize the content and advertising you see.
Visit our Privacy Policy to learn more. By continuing to use the site, you agree to this use of cookies and data.
  • In Schweiz
  • Länderverzeichnis
  • Für 7 Tage
  • Wassertemperatur
  • Satellitenkarten
  • Wetterkarte
  • Widgets
  • user-avatar
    Anmelden

    Stündliche Wetter Hartford

    Heute, 21 Januar, Montag

    Zeit Temperatur Niederschläge Wind Luftdruck Luftfeuchtigkeit
    00:00 +5°C° 0 mm 1 m/S 765 mmHg 92%
    01:00 +4°C° 0 mm 1 m/S 765 mmHg 92%
    02:00 +4°C° 0 mm 1 m/S 765 mmHg 91%
    03:00 +3°C° 0 mm 1 m/S 765 mmHg 91%
    04:00 +3°C° 0 mm 1 m/S 764 mmHg 91%
    05:00 +3°C° 0 mm 1 m/S 764 mmHg 91%
    06:00 +2°C° 0 mm 1 m/S 764 mmHg 92%
    07:00 +2°C° 0 mm 1 m/S 763 mmHg 93%
    08:00 +2°C° 0 mm 1 m/S 763 mmHg 94%
    09:00 +1°C° 0 mm 2 m/S 763 mmHg 95%
    10:00 +2°C° 0 mm 2 m/S 762 mmHg 91%
    11:00 +2°C° 0 mm 3 m/S 762 mmHg 87%
    12:00 +3°C° 0 mm 4 m/S 761 mmHg 84%
    13:00 +4°C° 0 mm 4 m/S 760 mmHg 82%
    14:00 +4°C° 0 mm 4 m/S 759 mmHg 81%
    15:00 +4°C° 0 mm 4 m/S 758 mmHg 80%
    16:00 +4°C° 0 mm 4 m/S 756 mmHg 82%
    17:00 +3°C° 0 mm 5 m/S 755 mmHg 83%
    18:00 +3°C° 0 mm 5 m/S 753 mmHg 85%
    19:00 +3°C° 0.6 mm 6 m/S 752 mmHg 85%
    20:00 +3°C° 0.6 mm 7 m/S 751 mmHg 85%
    21:00 +3°C° 0.6 mm 7 m/S 749 mmHg 86%
    22:00 +3°C° 1.4 mm 6 m/S 749 mmHg 83%
    23:00 +2°C° 1.4 mm 5 m/S 748 mmHg 80%

    Morgen, 22 Januar, Dienstag

    Zeit Temperatur Niederschläge Wind Luftdruck Luftfeuchtigkeit
    00:00 +1°C° 1.4 mm 4 m/S 748 mmHg 78%
    01:00 +1°C° 0.2 mm 4 m/S 748 mmHg 79%
    02:00 +1°C° 0.2 mm 5 m/S 747 mmHg 80%
    03:00 0°C° 0.2 mm 5 m/S 747 mmHg 81%
    04:00 0°C° 0.3 mm 4 m/S 747 mmHg 81%
    05:00 0°C° 0.3 mm 4 m/S 747 mmHg 82%
    06:00 -1°C° 0.3 mm 4 m/S 746 mmHg 82%
    07:00 -1°C° 0.2 mm 4 m/S 746 mmHg 83%
    08:00 -1°C° 0.2 mm 4 m/S 746 mmHg 83%
    09:00 -1°C° 0.2 mm 4 m/S 746 mmHg 84%
    10:00 0°C° 0.2 mm 4 m/S 746 mmHg 81%
    11:00 0°C° 0.2 mm 5 m/S 746 mmHg 78%
    12:00 +1°C° 0.2 mm 5 m/S 746 mmHg 75%
    13:00 +1°C° 0.3 mm 5 m/S 746 mmHg 76%
    14:00 0°C° 0.3 mm 5 m/S 746 mmHg 76%
    15:00 0°C° 0.3 mm 4 m/S 746 mmHg 77%
    16:00 0°C° 0.1 mm 3 m/S 746 mmHg 79%
    17:00 0°C° 0.1 mm 3 m/S 747 mmHg 81%
    18:00 -1°C° 0.1 mm 2 m/S 747 mmHg 84%
    19:00 -1°C° 0 mm 2 m/S 747 mmHg 84%
    20:00 -1°C° 0 mm 2 m/S 747 mmHg 84%
    21:00 -2°C° 0 mm 2 m/S 747 mmHg 84%
    22:00 -1°C° 0 mm 2 m/S 748 mmHg 84%
    23:00 -1°C° 0 mm 2 m/S 748 mmHg 85%

    übermorgen, 23 Januar, Mittwoch

    Zeit Temperatur Niederschläge Wind Luftdruck Luftfeuchtigkeit
    00:00 -1°C° 0 mm 2 m/S 748 mmHg 85%
    01:00 -1°C° 0.1 mm 2 m/S 748 mmHg 86%
    02:00 -1°C° 0.1 mm 2 m/S 749 mmHg 86%
    03:00 +1°C° 0.1 mm 1 m/S 749 mmHg 86%
    04:00 +1°C° 0 mm 1 m/S 749 mmHg 87%
    05:00 +1°C° 0 mm 1 m/S 749 mmHg 87%
    06:00 +1°C° 0 mm 1 m/S 749 mmHg 87%
    07:00 +1°C° 0 mm 1 m/S 750 mmHg 86%
    08:00 +1°C° 0 mm 1 m/S 751 mmHg 85%
    09:00 +1°C° 0 mm 1 m/S 751 mmHg 84%
    10:00 +2°C° 0 mm 1 m/S 751 mmHg 82%
    11:00 +3°C° 0 mm 1 m/S 752 mmHg 81%
    12:00 +4°C° 0 mm 1 m/S 752 mmHg 79%
    13:00 +4°C° 0 mm 1 m/S 752 mmHg 80%
    14:00 +4°C° 0 mm 1 m/S 753 mmHg 81%
    15:00 +4°C° 0 mm 1 m/S 753 mmHg 82%
    16:00 +3°C° 0 mm 1 m/S 753 mmHg 83%
    17:00 +3°C° 0 mm 1 m/S 754 mmHg 84%
    18:00 +2°C° 0 mm 1 m/S 754 mmHg 85%
    19:00 +2°C° 0 mm 1 m/S 754 mmHg 87%
    20:00 +2°C° 0 mm 1 m/S 755 mmHg 88%
    21:00 +1°C° 0 mm 2 m/S 755 mmHg 89%
    22:00 +1°C° 0 mm 2 m/S 755 mmHg 89%
    23:00 +1°C° 0 mm 2 m/S 755 mmHg 89%

    24 Januar, Donnerstag

    Zeit Temperatur Niederschläge Wind Luftdruck Luftfeuchtigkeit
    00:00 +1°C° 0 mm 2 m/S 755 mmHg 89%
    01:00 +1°C° 0 mm 2 m/S 755 mmHg 89%
    02:00 +2°C° 0 mm 2 m/S 755 mmHg 89%
    03:00 +2°C° 0 mm 2 m/S 755 mmHg 89%
    04:00 +2°C° 0.2 mm 2 m/S 755 mmHg 90%
    05:00 +2°C° 0.2 mm 3 m/S 754 mmHg 92%
    06:00 +2°C° 0.2 mm 3 m/S 754 mmHg 94%
    07:00 +2°C° 0.2 mm 3 m/S 754 mmHg 95%
    08:00 +3°C° 0.2 mm 3 m/S 754 mmHg 96%
    09:00 +3°C° 0.2 mm 3 m/S 754 mmHg 97%
    10:00 +4°C° 0.4 mm 3 m/S 754 mmHg 97%
    11:00 +5°C° 0.4 mm 3 m/S 754 mmHg 97%
    12:00 +7°C° 0.4 mm 3 m/S 754 mmHg 97%
    13:00 +7°C° 0.2 mm 3 m/S 754 mmHg 97%
    14:00 +6°C° 0.2 mm 4 m/S 754 mmHg 97%
    15:00 +7°C° 0.2 mm 4 m/S 754 mmHg 97%
    16:00 +7°C° 0.1 mm 5 m/S 754 mmHg 96%
    17:00 +7°C° 0.1 mm 5 m/S 755 mmHg 95%
    18:00 +7°C° 0.1 mm 6 m/S 755 mmHg 94%
    19:00 +7°C° 0 mm 5 m/S 755 mmHg 94%
    20:00 +7°C° 0 mm 5 m/S 756 mmHg 94%
    21:00 +7°C° 0 mm 5 m/S 756 mmHg 94%
    22:00 +7°C° 0 mm 5 m/S 756 mmHg 94%
    23:00 +7°C° 0 mm 4 m/S 756 mmHg 95%

    25 Januar, Freitag

    Zeit Temperatur Niederschläge Wind Luftdruck Luftfeuchtigkeit
    00:00 +7°C° 0 mm 4 m/S 757 mmHg 95%
    01:00 +7°C° 0 mm 4 m/S 757 mmHg 95%
    02:00 +7°C° 0 mm 4 m/S 757 mmHg 95%
    03:00 +7°C° 0 mm 4 m/S 757 mmHg 95%
    04:00 +7°C° 0.1 mm 4 m/S 757 mmHg 95%
    05:00 +7°C° 0.1 mm 4 m/S 757 mmHg 94%
    06:00 +7°C° 0.1 mm 4 m/S 757 mmHg 94%
    07:00 +7°C° 0 mm 4 m/S 757 mmHg 94%
    08:00 +8°C° 0 mm 3 m/S 758 mmHg 94%
    09:00 +7°C° 0 mm 3 m/S 758 mmHg 95%
    10:00 +7°C° 0 mm 4 m/S 758 mmHg 91%
    11:00 +8°C° 0 mm 4 m/S 758 mmHg 88%
    12:00 +9°C° 0 mm 5 m/S 758 mmHg 84%
    13:00 +10°C° 0 mm 4 m/S 757 mmHg 85%
    14:00 +9°C° 0 mm 3 m/S 757 mmHg 86%
    15:00 +9°C° 0 mm 3 m/S 756 mmHg 87%
    16:00 +9°C° 0 mm 3 m/S 756 mmHg 88%
    17:00 +9°C° 0 mm 3 m/S 756 mmHg 89%
    18:00 +8°C° 0 mm 3 m/S 756 mmHg 90%
    19:00 +8°C° 0 mm 3 m/S 756 mmHg 90%
    20:00 +7°C° 0 mm 4 m/S 755 mmHg 91%
    21:00 +7°C° 0 mm 4 m/S 755 mmHg 91%
    22:00 +7°C° 0.4 mm 4 m/S 754 mmHg 91%
    23:00 +8°C° 0.4 mm 5 m/S 753 mmHg 91%

    26 Januar, Samstag

    Zeit Temperatur Niederschläge Wind Luftdruck Luftfeuchtigkeit
    00:00 +8°C° 0.4 mm 5 m/S 752 mmHg 91%
    01:00 +8°C° 0.5 mm 6 m/S 751 mmHg 91%
    02:00 +8°C° 0.5 mm 6 m/S 750 mmHg 90%
    03:00 +8°C° 0.5 mm 6 m/S 749 mmHg 90%
    04:00 +8°C° 1.1 mm 6 m/S 748 mmHg 90%
    05:00 +7°C° 1.1 mm 6 m/S 747 mmHg 90%
    06:00 +5°C° 1.1 mm 6 m/S 747 mmHg 90%
    07:00 +5°C° 1 mm 6 m/S 747 mmHg 87%
    08:00 +4°C° 1 mm 6 m/S 747 mmHg 83%
    09:00 +4°C° 1 mm 6 m/S 747 mmHg 80%
    10:00 +4°C° 0.1 mm 7 m/S 747 mmHg 75%
    11:00 +4°C° 0.1 mm 7 m/S 748 mmHg 71%
    12:00 +4°C° 0.1 mm 8 m/S 748 mmHg 66%
    13:00 +4°C° 0.2 mm 8 m/S 748 mmHg 66%
    14:00 +3°C° 0.2 mm 7 m/S 748 mmHg 67%
    15:00 +3°C° 0.2 mm 7 m/S 748 mmHg 67%
    16:00 +3°C° 0.2 mm 7 m/S 748 mmHg 70%
    17:00 +3°C° 0.2 mm 7 m/S 748 mmHg 72%
    18:00 +3°C° 0.2 mm 7 m/S 748 mmHg 75%
    19:00 +3°C° 0.4 mm 6 m/S 748 mmHg 75%
    20:00 +3°C° 0.4 mm 6 m/S 748 mmHg 75%
    21:00 +2°C° 0.4 mm 6 m/S 749 mmHg 76%
    22:00 +2°C° 0.1 mm 6 m/S 749 mmHg 75%
    23:00 +2°C° 0.1 mm 5 m/S 750 mmHg 74%
    Mehr zeigen